Погода в Кацуге

Погода в Кацуге : погода сейчас, прогноз погоды и архив. Всё, что Вы хотите узнать о погоде в Кацуге!

Поиск расширенной информации на нашем сайте:

Другие новости

Новости СМИ2

Главная страница сайта

Новости сайта

03.07.2017

Напоминаем, что на нашем специализированном сайте Метеоцентр.Азия вы можете получить высокодетализированные автоматические прогнозы погоды по пунктам России, СНГ и мира в авиационном формате (включающие направление и скорость ветра, видимость, явления погоды, количество и форму облачности, нижнюю и верхнюю границу облачности).


Погода в Кацуге - сегодня

Время (UTC), дата Ветер
(°,м/с) 
Видим.   Явления Облачность Т
(°С)
Тd
(°С)
f(%) Тe
(°С)
Pmin
(гПа)
dP
(гПа)
Po
(мм)
O2
(г/м3)
Тmin Tmax R s Состояние
почвы
03 18.08.17 290 (З) 20000 м    10/8 600 м кучево-дожд., средняя, верхняя 
[Cb cap|Ac trans|Ci ing]
+17.3 +10.8 66 +21  1015.1  715  269           
06 18.08.17 280 (З) 20000 м    8/4 600 м кучево-дожд., средняя, верхняя 
[Cb cap|Ac trans|Ci ing]
+20.9 +9.6 48 +22  1014.1  -0.2  716  266           
09 18.08.17 310 (СЗ) 20000 м    4/3 1000 м средняя 
[Cu med, cong|Ac trans]
+20.6 +8.2 45 +21  1013.5  -0.6  716  267           
12 18.08.17 340 (С) 20000 м    3/0 верхняя 
[Ci ing]
+18.3 +9.7 57 +21  1014  716  269    +22.5       
15 18.08.17 300 (СЗ) н/о    ясно 
+12.3 +9.2 81 +15  1016.7  1.3  717  275           
18 18.08.17 180 (Ю) н/о    ясно 
+9.1 +7.8 92 +10  1017.2  -0.2  717  278           
21 18.08.17 220 (ЮЗ) н/о    6/0 верхняя 
[Ci ing]
+7.9 +7.2 95 +9  1017.4  717  279           
00 19.08.17 280 (З) 20000 м    10/10 300 м 
[St]
+10 +8.6 91 +10  1016.6  -0.4  716  277  +7.9        сухая 
03 19.08.17 310 (СЗ) 20000 м    8/3 300 м верхняя 
[St|Ci ing]
+17.1 +10.4 65 +22  1013.7  -1.2  716  269           
06 19.08.17 240 (ЮЗ) 20000 м    10/3 1000 м средняя, верхняя 
[Cu med, cong|Ac trans|Ci ing]
+21.6 +9.7 47 +23  1009.9  -2.8  713  265           
09 19.08.17 070 (В) 20000 м    8/0 средняя, верхняя 
[Ac trans|Ci ing]
+22.5 +5.1 32 +23  1008.5  -1.1  713  264           
12 19.08.17 тихо ()   20000 м    8/0 средняя, верхняя 
[Ac trans|Ci ing]
+18.3 +8.2 52 +18  1008.5  -0.8  712  267    +22.9       
15 19.08.17 тихо ()   н/о    4/0 верхняя 
[Ci ing]
+10.4 +8.1 86 +10  1010.2  712  275           
18 19.08.17 340 (С) н/о    ясно 
+9.2 +7.2 87 +9  1009.8  -0.6  712  276           
21 19.08.17 330 (СЗ) н/о    8/0 верхняя 
[Ci ing]
+7.9 +5.8 87 +8  1008.9  -1.1  711  277           
00 20.08.17 310 (СЗ) 20000 м    10/0 верхняя 
[Ci ing]
+10.2 +6.7 79 +10  1007.6  -0.8  710  275  +7.7        сухая 
03 20.08.17 310 (СЗ) 10 км    10/0 верхняя 
[Ci ing]
+18 +9.1 56 +20  1003.6  -2.1  709  266           
06 20.08.17 280 (З) 10 км  дым  10/3 1000 м кучево-дожд., средняя, верхняя 
[Cb cap|Ac trans|Ci ing]
+22.8 +6 34 +23  999.7  -2.8  706  262           
09 20.08.17 310 (СЗ) 10 км  дым  10/3 1000 м кучево-дожд., средняя, верхняя 
[Cb cap|Ac trans|Ci ing]
+22.9 +5.1 31 +23  999.3  -0.4  708  262           
12 20.08.17 330 (СЗ) 10 км  дым  10/3 1000 м кучево-дожд., средняя, верхняя 
[Cb cap|Ac trans|Ci ing]
+19.5 +5.1 39 +20  1000.2  0.2  706  265    +23.7       
15 20.08.17 350 (С) н/о    3/0 верхняя 
[Ci ing]
+14.7 +5.7 55 +15  1002.1  0.8  707  269           
18 20.08.17 330 (СЗ) н/о    ясно 
+12.7 +6.5 66 +13  1002.5  707  271           
21 20.08.17 320 (СЗ) н/о    ясно 
+9.1 +6.3 83 +10  1004.2  0.8  707  275           
00 21.08.17 310 (СЗ) 10 км  дым  10/0 верхняя 
[Ci ing]
+13.7 +9.4 75 +16  1004.4  1.3  708  270  +8.4        сухая 
03 21.08.17 300 (СЗ) 5-11{12}  10 км  дым  10/3 1000 м кучево-дожд., средняя, верхняя 
[Cb cap|Ac trans|Ci ing]
+16.8 +8.9 60 +18  1004.7  0.9  709  268           
Время (UTC), дата Ветер
(°,м/с) 
Видим.   Явления Облачность Т
(°С)
Тd
(°С)
f(%) Тe
(°С)
Pmin
(гПа)
dP
(гПа)
Po
(мм)
O2
(г/м3)
Тmin Tmax R s Состояние
почвы

Для получения пояснительной информации подведите курсор к названию столбца.

ПОГОДА в Кацуге - архив

Всё, что Вы хотите узнать о погоде в Кацуге - удобно и подробно!

Выберите нужную дату (начиная с 1 января 2015* года) и нажмите кнопку "Найти".
Будут отображены архивные сводки погоды по пункту Кацуг, начиная с указанной даты.


Отображать данные в формате CSV (для использования в таблицах Excel)


Внимание! Наш архив погоды предназначен исключительно для личного некоммерческого использования в познавательных целях. Если Вам необходимы официальные справки о состоянии погоды (для производственных, юридических, коммерческих и т.п. целей), обращайтесь в органы Росгидромета.

*Примечание: данная дата относится к архиву по метеостанциям СССР (Россия, СНГ, Балтия).
Архив по метеостанциям Зарубежной Европы и Азии (кроме Китая) хранится 10 дней, по другим регионам земного шара (Китай, Африка, Америка, Австралия, Океания) - 1 день.

Кацуг - район местоположения метеостанции


Название, широта, долгота, высота метеостанции:
Кацуг 54°ш. 105.9°д. 533 м над ур. моря [Российская Федерация]

Дополнительная информация

В oтличие oт бoльшинства пoгoдных сайтoв мы публикуем пoдрoбную метеoинфoрмацию в детальнoм прoфессиoнальнoм фoрмате.

Характеристики температуры и влажнoсти вoздуха измеряются на высoте 2 м в тени вдали oт зданий и деревьев.
Скoрoсть ветра измеряется на высoте 10 м (на урoвне рoста челoвека скoрoсть ветра ниже в 1.5-2 раза). Если метеoстанция нахoдится в гoрoде или в лесу, тo скoрoсть ветра занижена на 2-4 м/с пo сравнению с oткрытым местoм. Скoрoсть ветра над акватoриями крупных рек и oзёр, а также на вершинах хoлмoв на 2-5 м/с выше, чем в oбычных услoвиях.
Атмoсфернoе давление в разных тoчках местнoсти мoжет значительнo oтличаться oт давления на метеoстанции, в зависимoсти oт услoвий рельефа (при пoдъёме на 10 м давление пoнижается примернo на 1 мм рт.ст.).